owner,sensor,date,latitude,longitude,vertical_datum,wind_speed,wind_to_direction,wind_speed_of_gust,qcFlag 
TABS,ioos:station:wmo:42043:1,2006-02-01T00:00:00Z,28.9818,-94.9186,4.0,5.894539846,108.1894241,7.28,'11111222,11111222,11111222' 
TABS,ioos:station:wmo:42043:1,2006-02-01T00:30:00Z,28.9818,-94.9186,4.0,5.973683955,108.0410272,7.49,'11111222,11111222,11111222' 
TABS,ioos:station:wmo:42043:1,2006-02-01T01:00:00Z,28.9818,-94.9186,4.0,6.387182477,110.0524562,7.99,'11111222,11111222,11111222' 
TABS,ioos:station:wmo:42043:1,2006-02-01T01:30:00Z,28.9818,-94.9186,4.0,6.83289836,110.7428883,8.59,'11111222,11111222,11111222' 
TABS,ioos:station:wmo:42043:1,2006-02-01T02:00:00Z,28.9818,-94.9186,4.0,6.473391692,111.5716777,8.29,'11111222,11111222,11111222' 
TABS,ioos:station:wmo:42043:1,2006-02-01T02:30:00Z,28.9818,-94.9186,4.0,6.371090958,114.8760001,8.09,'11111222,11111222,11111222' 
TABS,ioos:station:wmo:42043:1,2006-02-01T03:00:00Z,28.9818,-94.9186,4.0,6.426585408,116.9242507,8.42,'11111222,11111222,11111222' 
TABS,ioos:station:wmo:42043:1,2006-02-01T03:30:00Z,28.9818,-94.9186,4.0,6.422227028,118.760336,8.21,'11111222,11111222,11111222' 
TABS,ioos:station:wmo:42043:1,2006-02-01T04:00:00Z,28.9818,-94.9186,4.0,6.263625148,121.6857535,7.66,'11111222,11111222,11111222' 
TABS,ioos:station:wmo:42043:1,2006-02-01T04:30:00Z,28.9818,-94.9186,4.0,5.900211861,127.355777,7.28,'11111222,11111222,11111222' 
TABS,ioos:station:wmo:42043:1,2006-02-01T05:00:00Z,28.9818,-94.9186,4.0,5.388404216,126.1684277,6.94,'11111222,11111222,11111222' 
TABS,ioos:station:wmo:42043:1,2006-02-01T05:30:00Z,28.9818,-94.9186,4.0,5.603650596,128.2609281,7.12,'11111222,11111222,11111222' 
TABS,ioos:station:wmo:42043:1,2006-02-01T06:00:00Z,28.9818,-94.9186,4.0,5.080009843,126.7574458,6.0,'11111222,11111222,11111222' 
TABS,ioos:station:wmo:42043:1,2006-02-01T06:30:00Z,28.9818,-94.9186,4.0,4.792869704,124.2872177,6.14,'11111222,11111222,11111222' 
TABS,ioos:station:wmo:42043:1,2006-02-01T07:00:00Z,28.9818,-94.9186,4.0,4.241992456,119.8289982,5.47,'11111222,11111222,11111222' 
TABS,ioos:station:wmo:42043:1,2006-02-01T07:30:00Z,28.9818,-94.9186,4.0,3.184980377,107.354405,3.88,'11111222,11111222,11111222' 
TABS,ioos:station:wmo:42043:1,2006-02-01T08:00:00Z,28.9818,-94.9186,4.0,3.899551256,109.318158,4.74,'11111222,11111222,11111222' 
TABS,ioos:station:wmo:42043:1,2006-02-01T08:30:00Z,28.9818,-94.9186,4.0,3.005661325,106.6265915,4.3,'11111222,11111222,11111222' 
TABS,ioos:station:wmo:42043:1,2006-02-01T09:00:00Z,28.9818,-94.9186,4.0,2.726554602,96.31739183,3.21,'11111222,11111222,11111222' 
TABS,ioos:station:wmo:42043:1,2006-02-01T09:30:00Z,28.9818,-94.9186,4.0,3.122707159,87.61364063,3.7,'11111222,11111222,11111222' 
TABS,ioos:station:wmo:42043:1,2006-02-01T10:00:00Z,28.9818,-94.9186,4.0,3.195074334,93.22997939,3.96,'11111222,11111222,11111222' 
TABS,ioos:station:wmo:42043:1,2006-02-01T10:30:00Z,28.9818,-94.9186,4.0,4.167505249,93.43953265,5.15,'11111222,11111222,11111222' 
TABS,ioos:station:wmo:42043:1,2006-02-01T11:00:00Z,28.9818,-94.9186,4.0,4.267926897,93.49300591,5.19,'11111222,11111222,11111222' 
TABS,ioos:station:wmo:42043:1,2006-02-01T11:30:00Z,28.9818,-94.9186,4.0,4.783147499,95.63948547,5.68,'11111222,11111222,11111222' 
TABS,ioos:station:wmo:42043:1,2006-02-01T12:00:00Z,28.9818,-94.9186,4.0,3.815783013,93.1552564,4.69,'11111222,11111222,11111222' 
TABS,ioos:station:wmo:42043:1,2006-02-01T12:30:00Z,28.9818,-94.9186,4.0,3.980113064,89.56771054,4.96,'11111222,11111222,11111222' 
TABS,ioos:station:wmo:42043:1,2006-02-01T13:00:00Z,28.9818,-94.9186,4.0,4.353722545,87.63007656,5.15,'11111222,11111222,11111222' 
TABS,ioos:station:wmo:42043:1,2006-02-01T13:30:00Z,28.9818,-94.9186,4.0,3.846881854,86.57190367,4.7,'11111222,11111222,11111222' 
TABS,ioos:station:wmo:42043:1,2006-02-01T14:00:00Z,28.9818,-94.9186,4.0,3.941433749,94.36566844,4.79,'11111222,11111222,11111222' 
TABS,ioos:station:wmo:42043:1,2006-02-01T14:30:00Z,28.9818,-94.9186,4.0,4.317835106,93.45258724,5.12,'11111222,11111222,11111222' 
TABS,ioos:station:wmo:42043:1,2006-02-01T15:00:00Z,28.9818,-94.9186,4.0,3.981369111,108.7538853,4.78,'11111222,11111222,11111222' 
TABS,ioos:station:wmo:42043:1,2006-02-01T15:30:00Z,28.9818,-94.9186,4.0,4.233355643,99.1067138,5.27,'11111222,11111222,11111222' 
TABS,ioos:station:wmo:42043:1,2006-02-01T16:00:00Z,28.9818,-94.9186,4.0,4.295881749,106.9167992,5.21,'11111222,11111222,11111222' 
TABS,ioos:station:wmo:42043:1,2006-02-01T16:30:00Z,28.9818,-94.9186,4.0,3.750653276,107.8556266,5.06,'11111222,11111222,11111222' 
TABS,ioos:station:wmo:42043:1,2006-02-01T17:00:00Z,28.9818,-94.9186,4.0,4.433892195,99.73889364,5.36,'11111222,11111222,11111222' 
TABS,ioos:station:wmo:42043:1,2006-02-01T17:30:00Z,28.9818,-94.9186,4.0,4.568260063,97.42099693,5.33,'11111222,11111222,11111222' 
TABS,ioos:station:wmo:42043:1,2006-02-01T18:00:00Z,28.9818,-94.9186,4.0,4.193864566,99.19320211,5.12,'11111222,11111222,11111222' 
TABS,ioos:station:wmo:42043:1,2006-02-01T18:30:00Z,28.9818,-94.9186,4.0,5.285461191,100.906394,6.12,'11111222,11111222,11111222' 
TABS,ioos:station:wmo:42043:1,2006-02-01T19:00:00Z,28.9818,-94.9186,4.0,5.146183052,101.6596863,6.24,'11111222,11111222,11111222' 
TABS,ioos:station:wmo:42043:1,2006-02-01T19:30:00Z,28.9818,-94.9186,4.0,4.430914127,91.1642807,5.42,'11111222,11111222,11111222' 
TABS,ioos:station:wmo:42043:1,2006-02-01T20:00:00Z,28.9818,-94.9186,4.0,5.849615372,100.0424211,7.0,'11111222,11111222,11111222' 
TABS,ioos:station:wmo:42043:1,2006-02-01T20:30:00Z,28.9818,-94.9186,4.0,5.760321172,104.3743704,6.96,'11111222,11111222,11111222' 
TABS,ioos:station:wmo:42043:1,2006-02-01T21:00:00Z,28.9818,-94.9186,4.0,6.628725368,115.5603263,8.09,'11111222,11111222,11111222' 
TABS,ioos:station:wmo:42043:1,2006-02-01T21:30:00Z,28.9818,-94.9186,4.0,6.876518014,113.2098977,8.16,'11111222,11111222,11111222' 
TABS,ioos:station:wmo:42043:1,2006-02-01T22:00:00Z,28.9818,-94.9186,4.0,7.886830796,115.135753,9.36,'11111222,11111222,11111222' 
TABS,ioos:station:wmo:42043:1,2006-02-01T22:30:00Z,28.9818,-94.9186,4.0,7.841887528,121.8663241,9.5,'11111222,11111222,11111222' 
TABS,ioos:station:wmo:42043:1,2006-02-01T23:00:00Z,28.9818,-94.9186,4.0,6.473360796,123.7886026,8.13,'11111222,11111222,11111222' 
TABS,ioos:station:wmo:42043:1,2006-02-01T23:30:00Z,28.9818,-94.9186,4.0,5.388320703,134.5491782,6.56,'11111222,11111222,11111222' 
TABS,ioos:station:wmo:42043:1,2006-02-02T00:00:00Z,28.9818,-94.9186,4.0,6.162799688,137.0386803,7.4,'11111222,11111222,11111222' 
TABS,ioos:station:wmo:42043:1,2006-02-02T00:30:00Z,28.9818,-94.9186,4.0,6.237443387,149.2413216,7.72,'11111222,11111222,11111222' 
TABS,ioos:station:wmo:42043:1,2006-02-02T01:00:00Z,28.9818,-94.9186,4.0,7.591712587,168.9123221,9.5,'11111222,11111222,11111222' 
TABS,ioos:station:wmo:42043:1,2006-02-02T01:30:00Z,28.9818,-94.9186,4.0,5.720707998,172.3658743,7.16,'11111222,11111222,11111222' 
TABS,ioos:station:wmo:42043:1,2006-02-02T02:00:00Z,28.9818,-94.9186,4.0,4.681538209,178.5314132,5.68,'11111222,11111222,11111222' 
TABS,ioos:station:wmo:42043:1,2006-02-02T02:30:00Z,28.9818,-94.9186,4.0,5.667424459,177.0671327,7.33,'11111222,11111222,11111222' 
TABS,ioos:station:wmo:42043:1,2006-02-02T03:00:00Z,28.9818,-94.9186,4.0,5.736287998,202.2281716,7.18,'11111222,11111222,11111222' 
TABS,ioos:station:wmo:42043:1,2006-02-02T03:30:00Z,28.9818,-94.9186,4.0,5.428093588,197.0330551,6.79,'11111222,11111222,11111222' 
TABS,ioos:station:wmo:42043:1,2006-02-02T04:00:00Z,28.9818,-94.9186,4.0,5.442288122,198.5349923,6.92,'11111222,11111222,11111222' 
TABS,ioos:station:wmo:42043:1,2006-02-02T04:30:00Z,28.9818,-94.9186,4.0,6.674885767,203.9539279,7.95,'11111222,11111222,11111222' 
TABS,ioos:station:wmo:42043:1,2006-02-02T05:00:00Z,28.9818,-94.9186,4.0,6.814484573,215.3227764,8.22,'11111222,11111222,11111222' 
TABS,ioos:station:wmo:42043:1,2006-02-02T05:30:00Z,28.9818,-94.9186,4.0,7.721431214,213.7519402,9.94,'11111222,11111222,11111222' 
TABS,ioos:station:wmo:42043:1,2006-02-02T06:00:00Z,28.9818,-94.9186,4.0,7.177750344,219.8567905,8.97,'11111222,11111222,11111222' 
TABS,ioos:station:wmo:42043:1,2006-02-02T06:30:00Z,28.9818,-94.9186,4.0,7.114183017,225.7974087,8.92,'11111222,11111222,11111222' 
TABS,ioos:station:wmo:42043:1,2006-02-02T07:00:00Z,28.9818,-94.9186,4.0,7.514179929,232.7336852,10.16,'11111222,11111222,11111222' 
TABS,ioos:station:wmo:42043:1,2006-02-02T07:30:00Z,28.9818,-94.9186,4.0,7.300499983,255.5640588,9.42,'11111222,11111222,11111222' 
TABS,ioos:station:wmo:42043:1,2006-02-02T08:00:00Z,28.9818,-94.9186,4.0,6.636655784,243.5122287,8.17,'11111222,11111222,11111222' 
TABS,ioos:station:wmo:42043:1,2006-02-02T08:30:00Z,28.9818,-94.9186,4.0,8.027857747,239.1219961,10.11,'11111222,11111222,11111222' 
TABS,ioos:station:wmo:42043:1,2006-02-02T09:00:00Z,28.9818,-94.9186,4.0,9.0193237,267.3945593,11.29,'11111222,11111222,11111222' 
TABS,ioos:station:wmo:42043:1,2006-02-02T09:30:00Z,28.9818,-94.9186,4.0,7.400999932,254.1609806,11.78,'11111222,11111222,11111222' 
TABS,ioos:station:wmo:42043:1,2006-02-02T10:00:00Z,28.9818,-94.9186,4.0,5.814464722,244.3164129,7.37,'11111222,11111222,11111222' 
TABS,ioos:station:wmo:42043:1,2006-02-02T10:30:00Z,28.9818,-94.9186,4.0,6.428973479,240.7636834,8.11,'11111222,11111222,11111222' 
TABS,ioos:station:wmo:42043:1,2006-02-02T11:00:00Z,28.9818,-94.9186,4.0,7.070905175,247.0248997,8.65,'11111222,11111222,11111222' 
TABS,ioos:station:wmo:42043:1,2006-02-02T11:30:00Z,28.9818,-94.9186,4.0,6.01486492,251.0831234,7.38,'11111222,11111222,11111222' 
TABS,ioos:station:wmo:42043:1,2006-02-02T12:00:00Z,28.9818,-94.9186,4.0,5.327213155,259.6182191,6.5,'11111222,11111222,11111222' 
TABS,ioos:station:wmo:42043:1,2006-02-02T12:30:00Z,28.9818,-94.9186,4.0,4.797707786,259.6738146,6.69,'11111222,11111222,11111222' 
TABS,ioos:station:wmo:42043:1,2006-02-02T13:00:00Z,28.9818,-94.9186,4.0,5.704804992,260.1084034,6.93,'11111222,11111222,11111222' 
TABS,ioos:station:wmo:42043:1,2006-02-02T13:30:00Z,28.9818,-94.9186,4.0,5.229799231,273.5079868,6.49,'11111222,11111222,11111222' 
TABS,ioos:station:wmo:42043:1,2006-02-02T14:00:00Z,28.9818,-94.9186,4.0,3.99055134,274.1674435,5.24,'11111222,11111222,11111222' 
TABS,ioos:station:wmo:42043:1,2006-02-02T14:30:00Z,28.9818,-94.9186,4.0,3.924206926,279.5343097,5.07,'11111222,11111222,11111222' 
TABS,ioos:station:wmo:42043:1,2006-02-02T15:00:00Z,28.9818,-94.9186,4.0,3.28975683,260.0223107,4.22,'11111222,11111222,11111222' 
TABS,ioos:station:wmo:42043:1,2006-02-02T15:30:00Z,28.9818,-94.9186,4.0,3.776413643,245.2673036,4.8,'11111222,11111222,11111222' 
TABS,ioos:station:wmo:42043:1,2006-02-02T16:00:00Z,28.9818,-94.9186,4.0,4.51159617,234.6543251,5.71,'11111222,11111222,11111222' 
TABS,ioos:station:wmo:42043:1,2006-02-02T16:30:00Z,28.9818,-94.9186,4.0,4.855852139,238.0447206,6.14,'11111222,11111222,11111222' 
TABS,ioos:station:wmo:42043:1,2006-02-02T17:00:00Z,28.9818,-94.9186,4.0,4.450550528,228.8262818,5.47,'11111222,11111222,11111222' 
TABS,ioos:station:wmo:42043:1,2006-02-02T17:30:00Z,28.9818,-94.9186,4.0,4.974434641,219.2895254,6.05,'11111222,11111222,11111222' 
TABS,ioos:station:wmo:42043:1,2006-02-02T18:00:00Z,28.9818,-94.9186,4.0,6.02536306,225.9414983,7.33,'11111222,11111222,11111222' 
TABS,ioos:station:wmo:42043:1,2006-02-02T18:30:00Z,28.9818,-94.9186,4.0,6.477159871,224.7499075,7.75,'11111222,11111222,11111222' 
TABS,ioos:station:wmo:42043:1,2006-02-02T19:00:00Z,28.9818,-94.9186,4.0,6.418948512,219.1199565,7.69,'11111222,11111222,11111222' 
TABS,ioos:station:wmo:42043:1,2006-02-02T19:30:00Z,28.9818,-94.9186,4.0,6.942341104,213.1866148,8.23,'11111222,11111222,11111222' 
TABS,ioos:station:wmo:42043:1,2006-02-02T20:00:00Z,28.9818,-94.9186,4.0,7.06601019,206.3838848,8.77,'11111222,11111222,11111222' 
TABS,ioos:station:wmo:42043:1,2006-02-02T20:30:00Z,28.9818,-94.9186,4.0,7.230857487,204.6867459,8.71,'11111222,11111222,11111222' 
TABS,ioos:station:wmo:42043:1,2006-02-02T21:00:00Z,28.9818,-94.9186,4.0,7.216702848,213.4700018,8.65,'11111222,11111222,11111222' 
TABS,ioos:station:wmo:42043:1,2006-02-02T21:30:00Z,28.9818,-94.9186,4.0,7.451717923,210.6606063,9.07,'11111222,11111222,11111222' 
TABS,ioos:station:wmo:42043:1,2006-02-02T22:00:00Z,28.9818,-94.9186,4.0,6.975514318,213.3029184,8.47,'11111222,11111222,11111222' 
TABS,ioos:station:wmo:42043:1,2006-02-02T22:30:00Z,28.9818,-94.9186,4.0,6.552991683,215.8732202,8.46,'11111222,11111222,11111222' 
TABS,ioos:station:wmo:42043:1,2006-02-02T23:00:00Z,28.9818,-94.9186,4.0,5.636177783,224.2093749,6.71,'11111222,11111222,11111222' 
TABS,ioos:station:wmo:42043:1,2006-02-02T23:30:00Z,28.9818,-94.9186,4.0,5.356164673,233.5794731,6.78,'11111222,11111222,11111222' 
TABS,ioos:station:wmo:42043:1,2006-02-03T00:00:00Z,28.9818,-94.9186,4.0,4.525980557,260.2047105,5.58,'11111222,11111222,11111222' 
TABS,ioos:station:wmo:42043:1,2006-02-03T00:30:00Z,28.9818,-94.9186,4.0,4.504808542,258.8646992,6.24,'11111222,11111222,11111222' 
TABS,ioos:station:wmo:42043:1,2006-02-03T01:00:00Z,28.9818,-94.9186,4.0,3.263525701,240.8431503,4.12,'11111222,11111222,11111222' 
TABS,ioos:station:wmo:42043:1,2006-02-03T01:30:00Z,28.9818,-94.9186,4.0,3.260383413,242.8062774,4.12,'11111222,11111222,11111222' 
TABS,ioos:station:wmo:42043:1,2006-02-03T02:00:00Z,28.9818,-94.9186,4.0,3.203388831,251.6216546,3.8,'11111222,11111222,11111222' 
TABS,ioos:station:wmo:42043:1,2006-02-03T02:30:00Z,28.9818,-94.9186,4.0,2.484673017,247.7704309,2.92,'11111222,11111222,11111222' 
TABS,ioos:station:wmo:42043:1,2006-02-03T03:00:00Z,28.9818,-94.9186,4.0,2.565638322,273.7992109,3.13,'11111222,11111222,11111222' 
TABS,ioos:station:wmo:42043:1,2006-02-03T03:30:00Z,28.9818,-94.9186,4.0,2.921181268,297.9685831,3.54,'11111222,11111222,11111222' 
TABS,ioos:station:wmo:42043:1,2006-02-03T04:00:00Z,28.9818,-94.9186,4.0,2.906303494,306.0417834,3.64,'11111222,11111222,11111222' 
TABS,ioos:station:wmo:42043:1,2006-02-03T04:30:00Z,28.9818,-94.9186,4.0,2.591235227,324.8991653,3.23,'11111222,11111222,11111222' 
TABS,ioos:station:wmo:42043:1,2006-02-03T05:00:00Z,28.9818,-94.9186,4.0,2.670168534,332.5711125,3.71,'11111222,11111222,11111222' 
TABS,ioos:station:wmo:42043:1,2006-02-03T05:30:00Z,28.9818,-94.9186,4.0,5.056500766,338.0511418,5.85,'11111222,11111222,11111222' 
TABS,ioos:station:wmo:42043:1,2006-02-03T06:00:00Z,28.9818,-94.9186,4.0,3.793533972,332.0162124,4.5,'11111222,11111222,11111222' 
TABS,ioos:station:wmo:42043:1,2006-02-03T06:30:00Z,28.9818,-94.9186,4.0,3.188228348,336.3293064,3.8,'11111222,11111222,11111222' 
TABS,ioos:station:wmo:42043:1,2006-02-03T07:00:00Z,28.9818,-94.9186,4.0,1.929818644,348.3405242,2.82,'11111222,11111222,11111222' 
TABS,ioos:station:wmo:42043:1,2006-02-03T07:30:00Z,28.9818,-94.9186,4.0,0.898276127,46.3528731,1.32,'11111222,11111222,11111222' 
TABS,ioos:station:wmo:42043:1,2006-02-03T08:00:00Z,28.9818,-94.9186,4.0,1.170854389,169.1701562,1.98,'11111222,11111222,11111222' 
TABS,ioos:station:wmo:42043:1,2006-02-03T08:30:00Z,28.9818,-94.9186,4.0,1.802359565,169.1267155,2.47,'11111222,11111222,11111222' 
TABS,ioos:station:wmo:42043:1,2006-02-03T09:00:00Z,28.9818,-94.9186,4.0,2.672264957,148.1539931,3.56,'11111222,11111222,11111222' 
TABS,ioos:station:wmo:42043:1,2006-02-03T09:30:00Z,28.9818,-94.9186,4.0,2.211108319,178.1860228,3.11,'11111222,11111222,11111222' 
TABS,ioos:station:wmo:42043:1,2006-02-03T10:00:00Z,28.9818,-94.9186,4.0,2.552195134,167.3253321,3.21,'11111222,11111222,11111222' 
TABS,ioos:station:wmo:42043:1,2006-02-03T10:30:00Z,28.9818,-94.9186,4.0,2.357901609,187.0649307,2.95,'11111222,11111222,11111222' 
TABS,ioos:station:wmo:42043:1,2006-02-03T11:00:00Z,28.9818,-94.9186,4.0,1.634778272,193.4413839,2.3,'11111222,11111222,11111222' 
TABS,ioos:station:wmo:42043:1,2006-02-03T11:30:00Z,28.9818,-94.9186,4.0,1.486606875,174.5964317,2.09,'11111222,11111222,11111222' 
TABS,ioos:station:wmo:42043:1,2006-02-03T12:00:00Z,28.9818,-94.9186,4.0,1.090045871,180.5258438,1.79,'11111222,11111222,11111222' 
TABS,ioos:station:wmo:42043:1,2006-02-03T12:30:00Z,28.9818,-94.9186,4.0,0.468721666,303.6899887,1.09,'11111222,11111222,11111222' 
TABS,ioos:station:wmo:42043:1,2006-02-03T13:00:00Z,28.9818,-94.9186,4.0,1.771778767,118.3011105,2.37,'11111222,11111222,11111222' 
TABS,ioos:station:wmo:42043:1,2006-02-03T13:30:00Z,28.9818,-94.9186,4.0,2.020321757,104.0366316,2.45,'11111222,11111222,11111222' 
TABS,ioos:station:wmo:42043:1,2006-02-03T14:00:00Z,28.9818,-94.9186,4.0,2.224679752,157.816249,2.95,'11111222,11111222,11111222' 
TABS,ioos:station:wmo:42043:1,2006-02-03T14:30:00Z,28.9818,-94.9186,4.0,2.002023976,162.5608635,2.41,'11111222,11111222,11111222' 
TABS,ioos:station:wmo:42043:1,2006-02-03T15:00:00Z,28.9818,-94.9186,4.0,2.679178979,173.1404665,3.78,'11111222,11111222,11111222' 
TABS,ioos:station:wmo:42043:1,2006-02-03T15:30:00Z,28.9818,-94.9186,4.0,2.061965082,182.5018274,2.85,'11111222,11111222,11111222' 
TABS,ioos:station:wmo:42043:1,2006-02-03T16:00:00Z,28.9818,-94.9186,4.0,1.478276023,146.3102217,1.87,'11111222,11111222,11111222' 
TABS,ioos:station:wmo:42043:1,2006-02-03T16:30:00Z,28.9818,-94.9186,4.0,1.350740538,146.7808119,1.93,'11111222,11111222,11111222' 
TABS,ioos:station:wmo:42043:1,2006-02-03T17:00:00Z,28.9818,-94.9186,4.0,1.320037878,164.1740934,1.85,'11111222,11111222,11111222' 
TABS,ioos:station:wmo:42043:1,2006-02-03T17:30:00Z,28.9818,-94.9186,4.0,0.941328848,183.0449818,1.96,'11111222,11111222,11111222' 
TABS,ioos:station:wmo:42043:1,2006-02-03T18:00:00Z,28.9818,-94.9186,4.0,2.948372432,300.1304729,5.79,'11111222,11111222,11111222' 
TABS,ioos:station:wmo:42043:1,2006-02-03T18:30:00Z,28.9818,-94.9186,4.0,1.960841656,312.3129011,3.35,'11111222,11111222,11111222' 
TABS,ioos:station:wmo:42043:1,2006-02-03T19:00:00Z,28.9818,-94.9186,4.0,3.516475508,319.1511703,4.63,'11111222,11111222,11111222' 
TABS,ioos:station:wmo:42043:1,2006-02-03T19:30:00Z,28.9818,-94.9186,4.0,4.446684158,29.50487195,7.44,'11111222,11111222,11111222' 
TABS,ioos:station:wmo:42043:1,2006-02-03T20:00:00Z,28.9818,-94.9186,4.0,3.897088657,32.9557817,5.03,'11111222,11111222,11111222' 
TABS,ioos:station:wmo:42043:1,2006-02-03T20:30:00Z,28.9818,-94.9186,4.0,2.258185112,19.39755663,2.91,'11111222,11111222,11111222' 
TABS,ioos:station:wmo:42043:1,2006-02-03T21:00:00Z,28.9818,-94.9186,4.0,2.508565327,343.0818163,6.52,'11111222,11111222,11111222' 
TABS,ioos:station:wmo:42043:1,2006-02-03T21:30:00Z,28.9818,-94.9186,4.0,7.071810235,358.7033626,12.24,'11111222,11111222,11111222' 
TABS,ioos:station:wmo:42043:1,2006-02-03T22:00:00Z,28.9818,-94.9186,4.0,14.24917191,353.9571228,17.28,'11111222,11111222,11111222' 
TABS,ioos:station:wmo:42043:1,2006-02-03T22:30:00Z,28.9818,-94.9186,4.0,14.39133767,355.6560572,17.81,'11111222,11111222,11111222' 
TABS,ioos:station:wmo:42043:1,2006-02-03T23:00:00Z,28.9818,-94.9186,4.0,12.29244483,350.1160365,16.18,'11111222,11111222,11111222' 
TABS,ioos:station:wmo:42043:1,2006-02-03T23:30:00Z,28.9818,-94.9186,4.0,11.71734185,356.0848912,14.69,'11111222,11111222,11111222' 
TABS,ioos:station:wmo:42043:1,2006-02-04T00:00:00Z,28.9818,-94.9186,4.0,10.63001881,354.4393805,13.94,'11111222,11111222,11111222' 
TABS,ioos:station:wmo:42043:1,2006-02-04T00:30:00Z,28.9818,-94.9186,4.0,9.874624043,352.4933523,12.2,'11111222,11111222,11111222' 
TABS,ioos:station:wmo:42043:1,2006-02-04T01:00:00Z,28.9818,-94.9186,4.0,9.16098248,347.3896061,11.94,'11111222,11111222,11111222' 
TABS,ioos:station:wmo:42043:1,2006-02-04T01:30:00Z,28.9818,-94.9186,4.0,10.0350436,350.2465082,13.12,'11111222,11111222,11111222' 
TABS,ioos:station:wmo:42043:1,2006-02-04T02:00:00Z,28.9818,-94.9186,4.0,9.635813406,355.0583915,12.64,'11111222,11111222,11111222' 
TABS,ioos:station:wmo:42043:1,2006-02-04T02:30:00Z,28.9818,-94.9186,4.0,9.383261693,354.4957891,12.17,'11111222,11111222,11111222' 
TABS,ioos:station:wmo:42043:1,2006-02-04T03:00:00Z,28.9818,-94.9186,4.0,10.01173811,348.7684475,12.64,'11111222,11111222,11111222' 
TABS,ioos:station:wmo:42043:1,2006-02-04T03:30:00Z,28.9818,-94.9186,4.0,9.352887255,348.9662076,11.91,'11111222,11111222,11111222' 
TABS,ioos:station:wmo:42043:1,2006-02-04T04:00:00Z,28.9818,-94.9186,4.0,8.021895038,344.2310265,10.45,'11111222,11111222,11111222' 
TABS,ioos:station:wmo:42043:1,2006-02-04T04:30:00Z,28.9818,-94.9186,4.0,7.402276677,346.2451738,9.44,'11111222,11111222,11111222' 
TABS,ioos:station:wmo:42043:1,2006-02-04T05:00:00Z,28.9818,-94.9186,4.0,6.536734659,348.2601313,8.35,'11111222,11111222,11111222' 
TABS,ioos:station:wmo:42043:1,2006-02-04T05:30:00Z,28.9818,-94.9186,4.0,6.106078938,344.7117874,7.61,'11111222,11111222,11111222' 
TABS,ioos:station:wmo:42043:1,2006-02-04T06:00:00Z,28.9818,-94.9186,4.0,5.228164114,344.5813072,7.39,'11111222,11111222,11111222' 
TABS,ioos:station:wmo:42043:1,2006-02-04T06:30:00Z,28.9818,-94.9186,4.0,4.169628281,345.1303676,5.78,'11111222,11111222,11111222' 
TABS,ioos:station:wmo:42043:1,2006-02-04T07:00:00Z,28.9818,-94.9186,4.0,3.345743565,334.5070537,4.3,'11111222,11111222,11111222' 
TABS,ioos:station:wmo:42043:1,2006-02-04T07:30:00Z,28.9818,-94.9186,4.0,3.017614952,326.6257662,3.93,'11111222,11111222,11111222' 
TABS,ioos:station:wmo:42043:1,2006-02-04T08:00:00Z,28.9818,-94.9186,4.0,2.994294575,322.3262843,3.86,'11111222,11111222,11111222' 
TABS,ioos:station:wmo:42043:1,2006-02-04T08:30:00Z,28.9818,-94.9186,4.0,2.057692883,315.1967862,3.05,'11111222,11111222,11111222' 
TABS,ioos:station:wmo:42043:1,2006-02-04T09:00:00Z,28.9818,-94.9186,4.0,2.375415753,295.162551,3.08,'11111222,11111222,11111222' 
TABS,ioos:station:wmo:42043:1,2006-02-04T09:30:00Z,28.9818,-94.9186,4.0,2.307661154,296.2318786,3.06,'11111222,11111222,11111222' 
TABS,ioos:station:wmo:42043:1,2006-02-04T10:00:00Z,28.9818,-94.9186,4.0,2.726242836,287.5044318,3.76,'11111222,11111222,11111222' 
TABS,ioos:station:wmo:42043:1,2006-02-04T10:30:00Z,28.9818,-94.9186,4.0,3.132491022,278.2594187,3.81,'11111222,11111222,11111222' 
TABS,ioos:station:wmo:42043:1,2006-02-04T11:00:00Z,28.9818,-94.9186,4.0,4.299418565,278.6954825,5.28,'11111222,11111222,11111222' 
TABS,ioos:station:wmo:42043:1,2006-02-04T11:30:00Z,28.9818,-94.9186,4.0,4.650989142,282.5421403,5.55,'11111222,11111222,11111222' 
TABS,ioos:station:wmo:42043:1,2006-02-04T12:00:00Z,28.9818,-94.9186,4.0,5.610320846,283.2931181,6.71,'11111222,11111222,11111222' 
TABS,ioos:station:wmo:42043:1,2006-02-04T12:30:00Z,28.9818,-94.9186,4.0,6.208228411,280.2057665,7.55,'11111222,11111222,11111222' 
TABS,ioos:station:wmo:42043:1,2006-02-04T13:00:00Z,28.9818,-94.9186,4.0,6.166117093,285.9070679,7.36,'11111222,11111222,11111222' 
TABS,ioos:station:wmo:42043:1,2006-02-04T13:30:00Z,28.9818,-94.9186,4.0,5.754024678,279.200379,6.91,'11111222,11111222,11111222' 
TABS,ioos:station:wmo:42043:1,2006-02-04T14:00:00Z,28.9818,-94.9186,4.0,5.854271944,280.8300542,7.23,'11111222,11111222,11111222' 
TABS,ioos:station:wmo:42043:1,2006-02-04T14:30:00Z,28.9818,-94.9186,4.0,5.680316893,295.66277,7.25,'11111222,11111222,11111222' 
TABS,ioos:station:wmo:42043:1,2006-02-04T15:00:00Z,28.9818,-94.9186,4.0,5.723154724,301.4959328,7.21,'11111222,11111222,11111222' 
TABS,ioos:station:wmo:42043:1,2006-02-04T15:30:00Z,28.9818,-94.9186,4.0,5.899576256,301.1302408,7.24,'11111222,11111222,11111222' 
TABS,ioos:station:wmo:42043:1,2006-02-04T16:00:00Z,28.9818,-94.9186,4.0,5.493022847,307.975526,6.9,'11111222,11111222,11111222' 
TABS,ioos:station:wmo:42043:1,2006-02-04T16:30:00Z,28.9818,-94.9186,4.0,5.878248038,299.2249457,7.08,'11111222,11111222,11111222' 
TABS,ioos:station:wmo:42043:1,2006-02-04T17:00:00Z,28.9818,-94.9186,4.0,5.403868984,290.2457574,6.59,'11111222,11111222,11111222' 
TABS,ioos:station:wmo:42043:1,2006-02-04T17:30:00Z,28.9818,-94.9186,4.0,4.885939009,279.4237431,6.22,'11111222,11111222,11111222' 
TABS,ioos:station:wmo:42043:1,2006-02-04T18:00:00Z,28.9818,-94.9186,4.0,4.390922454,271.1744615,5.25,'11111222,11111222,11111222' 
TABS,ioos:station:wmo:42043:1,2006-02-04T18:30:00Z,28.9818,-94.9186,4.0,3.248199501,238.8548097,4.24,'11111222,11111222,11111222' 